Stations météo

Publicité
Montelimar, France (7577): Température de l'air & dewpoint: 19.05.2017 08:00:00 - 25.05.2017 08:00:00 (CEST)Montelimar, France (7577): Température de l'air 5cm: 19.05.2017 08:00:00 - 25.05.2017 08:00:00 (CEST)Montelimar, France (7577): Température de l'air -20cm & Température de l'air -100cm: 19.05.2017 08:00:00 - 25.05.2017 08:00:00 (CEST)Montelimar, France (7577): Vitesse du vent & gusts: 19.05.2017 08:00:00 - 25.05.2017 08:00:00 (CEST)Montelimar, France (7577): Direction du vent: 19.05.2017 08:00:00 - 25.05.2017 08:00:00 (CEST)Montelimar, France (7577): reduced air pressure: 19.05.2017 08:00:00 - 25.05.2017 08:00:00 (CEST)Montelimar, France (7577): visibility: 19.05.2017 08:00:00 - 25.05.2017 08:00:00 (CEST)Montelimar, France (7577): Ensoleillement: 19.05.2017 08:00:00 - 25.05.2017 08:00:00 (CEST)Montelimar, France (7577): Quantités de précipitations: 19.05.2017 08:00:00 - 25.05.2017 08:00:00 (CEST)
Date & Time tt [°C] td [°C] tt 5cm [°C] tt -20cm [°C] tt -100cm [°C] ff [km/h] ff [knt] fx [km/h] fx [knt] dd ppp [hPa] vv [km] sd [min] rr [mm]
25.05.2017 08:00:00 19,5 12,3 18,9 19,3 16,4 26 14 51 28 N 1015,1 20 60 0,0
25.05.2017 07:00:00 18,7 12,0 17,8 19,4 16,4 27 15 50 27 NNE 1015,2 20 17 0,0
25.05.2017 06:00:00 18,9 11,7 17,6 19,6 16,4 24 13 45 24 NNE 1015,3 20 0 0,0
25.05.2017 05:00:00 19,1 11,6 17,9 19,7 16,4 18 10 27 14 NNE 1015,6 20 0 0,0
25.05.2017 04:00:00 19,5 11,5 17,7 19,7 16,4 12 6 29 16 NNE 1015,9 20 0 0,0
25.05.2017 03:00:00 20,0 11,7 18,9 19,8 16,4 19 11 38 20 NNE 1016,3 20 0 0,0
25.05.2017 02:00:00 20,3 12,0 19,0 19,9 16,4 18 10 33 18 NNE 1016,7 20 0 0,0
25.05.2017 01:00:00 20,9 11,5 19,5 19,9 16,3 18 10 38 21 N 1017,3 20 0 0,0
25.05.2017 00:00:00 21,5 11,2 19,9 20,0 16,3 16 9 46 25 N 1017,3 20 0 0,0
24.05.2017 23:00:00 23,1 10,2 21,7 20,0 16,3 25 13 54 29 N 1017,5 20 0 0,0
24.05.2017 22:00:00 23,9 8,3 22,1 19,9 16,3 26 14 56 31 N 1017,0 20 0 0,0
24.05.2017 21:00:00 24,6 10,1 23,4 19,8 16,3 31 17 61 33 N 1016,8 20 32 0,0
24.05.2017 20:00:00 25,5 11,6 26,3 19,6 16,3 22 12 47 26 N 1016,7 20 60 0,0
24.05.2017 19:00:00 26,4 12,1 29,6 19,5 16,3 18 10 43 23 N 1016,6 20 60 0,0
24.05.2017 18:00:00 26,6 12,6 30,3 19,3 16,3 19 10 48 26 N 1017,0 20 60 0,0
24.05.2017 17:00:00 26,6 11,5 30,7 19,1 16,3 25 14 51 27 N 1017,5 20 60 0,0
24.05.2017 16:00:00 26,4 13,2 30,4 18,8 16,2 29 16 54 29 NNE 1017,8 20 60 0,0
24.05.2017 15:00:00 26,0 13,5 30,4 18,7 16,3 29 16 61 33 NNE 1018,2 20 60 0,0
24.05.2017 14:00:00 25,5 13,4 29,2 18,6 16,3 29 16 55 30 NNE 1018,6 20 60 0,0
24.05.2017 13:00:00 24,3 13,2 28,9 18,5 16,2 35 19 58 31 NNE 1019,3 20 60 0,0
24.05.2017 12:00:00 23,7 14,1 26,9 18,5 16,2 29 16 56 31 NNE 1019,8 19 60 0,0
24.05.2017 11:00:00 22,6 13,4 26,1 18,5 16,2 36 20 64 34 NNE 1019,9 20 60 0,0
24.05.2017 10:00:00 21,6 13,8 24,4 18,6 16,2 29 16 54 29 NNE 1020,2 20 60 0,0
24.05.2017 09:00:00 20,6 13,3 22,0 18,7 16,2 32 18 52 28 NNE 1020,2 20 60 0,0
24.05.2017 08:00:00 19,7 13,4 19,1 18,8 16,2 26 14 46 25 NNE 1020,4 20 60 0,0
24.05.2017 07:00:00 18,6 13,5 17,8 18,9 16,2 23 13 39 21 NNE 1020,0 20 26 0,0
24.05.2017 06:00:00 18,7 13,8 18,0 18,9 16,2 18 10 39 21 NE 1020,0 20 0 0,0
24.05.2017 05:00:00 19,6 14,0 18,7 19,0 16,1 20 11 42 23 NNE 1019,9 20 0 0,0
24.05.2017 04:00:00 20,0 13,9 19,0 19,1 16,1 20 11 37 20 NNE 1019,6 20 0 0,0
24.05.2017 03:00:00 20,6 13,5 19,6 19,2 16,2 20 11 42 23 NNE 1019,7 20 0 0,0
24.05.2017 02:00:00 21,1 13,3 20,0 19,2 16,1 22 12 40 22 NNE 1019,8 20 0 0,0
24.05.2017 01:00:00 21,8 13,7 20,6 19,2 16,1 24 13 37 20 NNE 1019,6 20 0 0,0
24.05.2017 00:00:00 21,7 13,6 20,4 19,2 16,1 18 10 33 18 NNE 1019,7 20 0 0,0
23.05.2017 23:00:00 22,2 13,0 20,7 19,2 16,1 11 6 26 14 NE 1019,5 20 0 0,0
23.05.2017 22:00:00 23,6 12,6 22,1 19,1 16,1 16 8 31 17 NNE 1018,6 20 0 0,0
23.05.2017 21:00:00 25,0 11,5 23,4 19,0 16,1 16 9 33 18 NNE 1018,0 20 22 0,0
23.05.2017 20:00:00 25,7 11,8 25,6 18,8 16,1 15 8 37 20 NNE 1017,5 20 57 0,0
23.05.2017 19:00:00 26,7 12,7 28,7 18,6 16,1 20 11 36 19 NNE 1017,5 20 60 0,0
23.05.2017 18:00:00 27,1 13,1 30,4 18,4 16,1 20 11 44 24 N 1017,5 20 60 0,0
23.05.2017 17:00:00 27,3 12,5 31,0 18,1 16,1 26 14 46 25 NNE 1017,5 20 60 0,0
23.05.2017 16:00:00 26,9 12,5 31,6 17,9 16,1 24 13 51 27 N 1017,7 20 60 0,0
23.05.2017 15:00:00 27,0 12,2 31,5 17,7 16,1 27 15 49 27 NNE 1018,0 20 60 0,0
23.05.2017 14:00:00 26,5 12,2 31,4 17,5 16,1 27 15 45 24 NNE 1018,3 20 60 0,0
23.05.2017 13:00:00 25,6 13,8 30,0 17,5 16,1 19 10 39 21 NNE 1018,7 20 60 0,0
23.05.2017 12:00:00 24,0 13,2 24,2 17,5 16,1 21 11 42 23 NNE 1019,0 20 56 0,0
23.05.2017 11:00:00 23,1 12,4 26,0 17,5 16,1 24 13 39 21 NNE 1019,0 20 60 0,0
23.05.2017 10:00:00 20,1 11,0 23,0 17,6 16,1 17 9 31 17 NNE 1019,3 20 60 0,0
23.05.2017 09:00:00 17,2 10,1 17,5 17,7 16,1 19 10 32 17 N 1019,4 20 60 0,0
23.05.2017 08:00:00 15,3 9,4 14,4 17,8 16,0 15 8 29 16 N 1019,0 20 60 0,0
23.05.2017 07:00:00 14,1 9,3 12,6 18,0 16,0 10 6 18 10 NNE 1018,9 20 9 0,0
23.05.2017 06:00:00 13,8 9,2 10,5 18,1 16,1 14 8 23 12 NNE 1018,5 20 0 0,0
23.05.2017 05:00:00 12,4 9,9 10,8 18,2 16,0 0 0 4 2 N 1018,4 20 0 0,0
23.05.2017 04:00:00 12,1 9,5 9,7 18,3 16,1 5 3 9 5 N 1018,3 20 0 0,0
23.05.2017 03:00:00 13,0 10,7 10,6 18,3 16,0 3 1 4 2 N 1018,3 20 0 0,0
23.05.2017 02:00:00 14,6 11,2 12,0 18,4 16,0 0 0 4 2 N 1018,4 16 0 0,0
23.05.2017 01:00:00 15,3 11,5 13,6 18,4 16,0 3 1 4 2 SW 1018,6 3,9 0 0,0
23.05.2017 00:00:00 15,6 11,0 13,3 18,5 16,0 0 0 3 2 N 1018,4 20 0 0,0
22.05.2017 23:00:00 17,0 10,1 14,2 18,4 16,0 2 1 6 3 SW 1018,3 20 0 0,0
22.05.2017 22:00:00 18,3 9,4 15,2 18,4 16,0 4 2 6 3 SSW 1017,9 20 0 0,0
22.05.2017 21:00:00 19,9 7,9 17,4 18,2 16,0 6 3 15 8 S 1017,5 20 18 0,0
22.05.2017 20:00:00 22,0 7,0 23,4 18,1 16,0 9 5 18 10 S 1017,3 20 60 0,0
22.05.2017 19:00:00 23,3 6,5 26,0 17,9 16,0 10 6 30 16 S 1017,2 20 60 0,0
22.05.2017 18:00:00 24,0 4,9 24,3 17,7 16,0 17 9 34 18 S 1017,3 20 52 0,0
22.05.2017 17:00:00 25,1 4,8 28,6 17,4 16,0 16 9 28 15 S 1017,4 20 60 0,0
22.05.2017 16:00:00 25,2 5,9 29,0 17,2 16,0 15 8 32 18 S 1017,7 20 60 0,0
22.05.2017 15:00:00 25,0 7,6 27,6 17,1 16,0 17 9 31 17 S 1018,0 20 60 0,0
22.05.2017 14:00:00 23,9 8,3 26,0 17,0 16,0 15 8 26 14 S 1018,6 20 60 0,0
22.05.2017 13:00:00 22,1 7,5 24,6 16,9 16,0 14 8 25 13 S 1019,0 20 55 0,0
22.05.2017 12:00:00 20,5 10,9 22,4 16,9 16,0 7 4 13 7 S 1019,3 20 26 0,0
22.05.2017 11:00:00 19,3 11,8 21,2 16,9 16,0 5 3 11 6 SSW 1019,4 20 34 0,0
22.05.2017 10:00:00 16,3 11,0 18,2 17,0 16,0 5 3 9 5 W 1019,5 17 11 0,0
22.05.2017 09:00:00 15,6 10,6 18,1 17,1 16,0 0 0 5 3 N 1019,2 20 60 0,0
22.05.2017 08:00:00 12,3 10,2 10,8 17,2 16,0 0 0 5 3 N 1019,3 20 54 0,0
22.05.2017 07:00:00 10,2 9,3 7,8 17,4 16,0 0 0 0 0 N 1019,0 20 9 0,0
22.05.2017 06:00:00 9,4 8,0 7,9 17,5 16,0 0 0 0 0 N 1018,7 20 0 0,0
22.05.2017 05:00:00 9,4 7,8 7,2 17,6 16,0 0 0 4 2 N 1018,7 20 0 0,0
22.05.2017 04:00:00 9,8 7,9 7,2 17,7 16,0 0 0 0 0 N 1019,0 20 0 0,0
22.05.2017 03:00:00 10,5 8,4 7,8 17,8 16,0 0 0 3 1 N 1019,1 20 0 0,0
22.05.2017 02:00:00 11,7 9,1 9,3 17,9 16,0 2 1 8 4 SW 1019,5 20 0 0,0
22.05.2017 01:00:00 12,8 9,1 10,3 18,0 16,0 0 0 6 3 N 1019,7 20 0 0,0
22.05.2017 00:00:00 13,5 9,2 10,7 17,9 16,0 3 2 5 3 NNE 1019,8 20 0 0,0
21.05.2017 23:00:00 15,6 8,6 12,4 17,9 16,0 5 3 14 8 N 1020,0 20 0 0,0
21.05.2017 22:00:00 17,1 8,8 14,8 17,8 16,0 8 4 14 8 N 1019,6 20 0 0,0
21.05.2017 21:00:00 19,5 10,2 15,3 17,6 16,0 4 2 10 6 NNE 1019,1 20 26 0,0
21.05.2017 20:00:00 22,1 8,2 23,4 17,5 16,0 7 4 11 6 N 1018,8 20 60 0,0
21.05.2017 19:00:00 22,9 9,3 25,9 17,3 16,0 7 4 16 8 N 1018,8 20 60 0,0
21.05.2017 18:00:00 22,9 8,2 27,2 17,1 16,0 11 6 22 12 N 1019,2 20 60 0,0
21.05.2017 17:00:00 22,7 9,1 27,2 16,9 16,0 14 7 27 14 NNE 1019,4 20 60 0,0
21.05.2017 16:00:00 22,4 8,1 27,9 16,7 16,1 18 10 29 16 NNE 1019,9 20 60 0,0
21.05.2017 15:00:00 21,8 7,6 26,3 16,5 16,0 21 12 37 20 NNE 1020,4 20 60 0,0
21.05.2017 14:00:00 21,0 7,9 25,0 16,5 16,0 24 13 42 23 NNE 1021,0 20 60 0,0
21.05.2017 13:00:00 20,3 8,3 24,7 16,4 16,0 25 14 47 25 NNE 1021,4 20 60 0,0
21.05.2017 12:00:00 18,9 7,6 23,3 16,4 16,0 29 15 47 25 NNE 1022,0 20 60 0,0
21.05.2017 11:00:00 18,0 8,3 21,9 16,5 16,0 26 14 57 31 NNE 1022,2 20 60 0,0
21.05.2017 10:00:00 17,2 7,8 20,2 16,6 16,0 24 13 51 27 NNE 1022,4 20 60 0,0
21.05.2017 09:00:00 15,8 7,5 16,8 16,7 16,0 25 14 49 26 N 1022,3 20 60 0,0
21.05.2017 08:00:00 13,8 7,1 13,1 16,9 16,0 22 12 49 26 NNE 1022,4 20 60 0,0
21.05.2017 07:00:00 12,1 7,0 10,9 17,0 16,0 23 13 40 22 N 1022,5 20 35 0,0
21.05.2017 06:00:00 11,8 6,7 11,1 17,1 16,0 22 12 38 20 NNE 1022,3 20 0 0,0
21.05.2017 05:00:00 12,2 6,7 11,4 17,3 16,0 23 12 35 19 NNE 1022,3 20 0 0,0
21.05.2017 04:00:00 12,3 6,6 11,3 17,4 16,0 16 8 36 19 NE 1022,7 20 0 0,0
21.05.2017 03:00:00 13,3 6,4 12,4 17,5 16,0 21 12 36 20 NNE 1022,6 20 0 0,0
21.05.2017 02:00:00 13,3 6,4 11,3 17,6 16,0 16 8 26 14 NE 1023,4 20 0 0,0
21.05.2017 01:00:00 13,4 6,5 12,3 17,7 16,0 12 7 24 13 NE 1023,4 20 0 0,0
21.05.2017 00:00:00 14,2 6,3 12,2 17,8 16,0 13 7 26 14 NNE 1023,0 20 0 0,0
20.05.2017 23:00:00 15,4 5,9 12,6 17,8 16,0 11 6 19 10 N 1023,1 20 0 0,0
20.05.2017 22:00:00 16,6 5,2 14,7 17,8 16,0 10 5 24 13 NNW 1023,0 20 0 0,0
20.05.2017 21:00:00 17,6 5,5 15,8 17,8 16,0 13 7 38 20 N 1022,7 20 29 0,0
20.05.2017 20:00:00 18,8 5,3 20,6 17,7 16,0 13 7 38 21 N 1022,2 20 60 0,0
20.05.2017 19:00:00 19,4 5,4 22,6 17,5 16,0 19 10 34 19 N 1022,0 20 60 0,0
20.05.2017 18:00:00 19,5 5,5 20,5 17,4 16,0 21 11 46 25 N 1021,8 20 57 0,0
20.05.2017 17:00:00 19,7 5,7 20,8 17,2 16,0 23 13 41 22 NNE 1021,5 20 43 0,0
20.05.2017 16:00:00 19,3 6,1 21,2 17,1 16,0 24 13 47 25 NNE 1021,4 20 39 0,0
20.05.2017 15:00:00 19,6 6,7 22,9 17,0 16,0 22 12 39 21 NNE 1021,5 20 58 0,0
20.05.2017 14:00:00 18,7 6,5 23,4 16,9 16,0 21 11 42 23 NNE 1021,9 20 60 0,0
20.05.2017 13:00:00 18,2 7,3 20,1 16,9 16,0 24 13 46 25 NNE 1022,0 20 55 0,0
20.05.2017 12:00:00 17,4 8,0 21,9 16,9 16,0 25 14 41 22 NNE 1021,9 20 60 0,0
20.05.2017 11:00:00 16,5 6,9 20,8 17,1 16,0 21 11 36 19 NNE 1021,7 20 60 0,0
20.05.2017 10:00:00 15,4 7,4 17,3 17,2 16,0 17 9 33 18 NNE 1021,7 20 60 0,0
20.05.2017 09:00:00 13,8 7,8 11,0 17,3 16,0 18 10 31 17 NNE 1021,6 20 35 0,0
20.05.2017 08:00:00 10,9 7,0 9,9 17,5 16,0 3 2 22 12 NNW 1021,4 20 18 0,0
20.05.2017 07:00:00 10,4 7,8 5,6 17,7 16,0 9 5 16 9 NNE 1020,9 20 34 0,0
20.05.2017 06:00:00 7,9 5,9 5,6 17,8 16,0 0 0 7 4 N 1020,4 20 0 0,0
20.05.2017 05:00:00 9,0 7,0 6,4 18,0 16,0 5 3 9 5 N 1020,1 20 0 0,0
20.05.2017 04:00:00 8,8 6,6 6,8 18,1 16,0 2 1 9 5 SE 1020,2 20 0 0,0
20.05.2017 03:00:00 9,4 7,0 7,1 18,2 15,9 4 2 8 5 N 1020,0 20 0 0,0
20.05.2017 02:00:00 10,3 7,7 8,1 18,3 15,9 2 1 5 3 NW 1020,1 20 0 0,0
20.05.2017 01:00:00 11,5 9,4 9,2 18,4 16,0 5 3 8 4 SW 1020,2 20 0 0,0
20.05.2017 00:00:00 12,6 9,8 10,6 18,4 16,0 0 0 7 4 N 1019,8 20 0 0,0
19.05.2017 23:00:00 13,7 9,9 11,5 18,4 15,9 0 0 11 6 N 1019,5 20 0 0,0
19.05.2017 22:00:00 14,5 9,9 12,6 18,4 15,9 9 5 13 7 N 1018,9 20 0 0,6
19.05.2017 21:00:00 15,8 8,8 14,7 18,4 15,9 5 3 15 8 N 1018,0 20 0 0,0
19.05.2017 20:00:00 17,4 8,0 17,2 18,3 15,9 4 2 18 10 NW 1017,6 20 10 0,0
19.05.2017 19:00:00 18,1 7,5 18,0 18,1 15,9 10 5 22 12 N 1017,1 20 48 0,0
19.05.2017 18:00:00 18,7 7,5 21,5 18,0 15,9 10 5 26 14 N 1016,7 20 58 0,0
19.05.2017 17:00:00 18,1 7,2 19,2 17,9 15,9 15 8 29 16 N 1016,6 20 38 0,0
19.05.2017 16:00:00 18,3 8,0 21,5 17,7 15,8 13 7 24 13 N 1016,8 20 55 0,0
19.05.2017 15:00:00 17,5 7,8 23,6 17,7 15,8 17 9 31 17 NNE 1017,2 20 60 0,0
19.05.2017 14:00:00 16,6 9,0 22,5 17,7 15,8 16 8 34 18 N 1017,7 20 60 0,0
19.05.2017 13:00:00 15,5 8,0 20,2 17,8 15,8 16 8 32 18 NNE 1018,1 20 60 0,0
19.05.2017 12:00:00 14,1 9,1 18,8 17,9 15,8 20 11 33 18 NNE 1018,5 20 60 0,0
19.05.2017 11:00:00 12,3 8,0 14,8 18,1 15,8 15 8 31 17 N 1018,6 20 34 0,0
19.05.2017 10:00:00 10,9 8,3 11,0 18,3 15,8 18 10 29 16 NNE 1018,7 20 7 0,0
19.05.2017 09:00:00 9,7 7,1 8,8 18,4 15,7 16 9 30 16 N 1018,5 20 0 0,0
19.05.2017 08:00:00 9,1 6,9 8,6 18,6 15,7 15 8 29 16 NNE 1017,8 20 0 0,4

tt = Température de l'air
td = dewpoint
tt 5cm = Température de l'air 5cm
tt -20cm = Température de l'air -20cm
tt -100cm = Température de l'air -100cm
ff = Vitesse du vent
fx = gusts
dd = Direction du vent
ppp = reduced air pressure
vv = visibility
sd = Ensoleillement
rr = Quantités de précipitations

stations d'obs. à proximité